Regional Weather Roundup
Issued by NWS Wakefield, VA

Home | Current Version | Previous Version | Text Only | Print | Product List | Glossary Off
Versions: 1 2 3 4 5 6 7 8 9 10 11 12 13 14 15 16 17 18 19 20 21 22 23 24 25 26 27 28 29 30 31 32 33 34 35 36 37 38 39 40 41 42 43 44 45 46 47 48 49 50

000
ASUS41 KAKQ 241815
RWRAKQ

REGIONAL WEATHER ROUNDUP
NATIONAL WEATHER SERVICE WAKEFIELD VA
200 PM EDT TUE MAY 24 2016

Note: "fair" indicates few or no clouds below 12,000 feet with no
significant weather and/or obstructions to visibility. * = Denotes
station may not report precipitation (e.g., rain,snow,etc.),
thunder or fog.

VAZ042-051-052>054-056-241900-
NORTHERN VIRGINIA

CITY           SKY/WX    TMP DP  RH WIND       PRES   REMARKS
WASH NATIONAL  FAIR      81  48  31 NW17G23   30.00F
DULLES         FAIR      79  50  36 NW12G21   30.01F
FORT BELVOIR   FAIR      81  46  29 NW15      30.00F
QUANTICO       FAIR      81  49  32 N8        30.02F
FREDERICKSBRG* FAIR      81  52  36 N10G18    30.01F
STAFFORD*      FAIR      79  47  32 N13G18    30.06F
WARRENTON      FAIR      82  41  23 NW8       30.02F
CULPEPER*      FAIR      80  54  39 NW6       30.03F
MANASSAS*      SUNNY     81  48  32 N9G20     30.02F
LEESBURG*      FAIR      81  54  39 NW13G18   30.02F
WINCHESTER     FAIR      79  50  36 N9G18     30.03F
FRONT ROYAL*   FAIR      79  50  36 W7        30.02F
LURAY*         FAIR      79  50  36 W8        30.04F
$$

VAZ048-049-060>072-079>083-241900-
CENTRAL AND SOUTH CENTRAL VIRGINIA

CITY           SKY/WX    TMP DP  RH WIND       PRES   REMARKS
RICHMOND       FAIR      80  52  37 N9        30.03F
CHESTERFIELD*  FAIR      81  52  36 NW9       30.06S
PETERSBURG*    FAIR      81  55  40 NW5       30.05F
HANOVER        FAIR      81  50  33 W10       30.04F
TAPPAHANNOCK*  FAIR      82  50  33 NW5       30.03F
QUINTON*       FAIR      79  55  43 W5        30.02F
CHARLOTTSVILLE FAIR      81  51  35 N7G16     30.04F
GORDONSVILLE*  FAIR      80  51  35 CALM      30.03F
ORANGE*        FAIR      81  48  32 SW12      30.05F
LOUISA*        FAIR      82  57  42 CALM      30.03F
BUMPASS*       FAIR      79  54  42 N5        30.04F
FARMVILLE*     PTSUNNY   79  53  40 CALM      30.04F
CREWE*         FAIR      79  57  45 NW3       30.05F
FORT PICKETT*  NOT AVBL
CHASE CITY*    FAIR      78  49  36 W7        30.08F
CLARKSVILLE*   FAIR      79  55  44 SW9       30.08F
SOUTH HILL*    FAIR      78  58  51 W7        30.13F
LAWRENCEVILLE* FAIR      79  58  48 NW7       30.06F
EMPORIA*       FAIR      79  55  44 SW10      30.07F
$$

VAZ088>098-241900-
SOUTHEAST VIRGINIA

CITY           SKY/WX    TMP DP  RH WIND       PRES   REMARKS
NORFOLK        FAIR      78  54  43 W10       30.03F
VIRGINIA BEACH FAIR      82  55  39 W9        30.02F
NORFOLK NAVAL  FAIR      79  56  45 W12       30.05S
WEST POINT*    FAIR      80  55  42 SW8       30.03F
SALUDA*        FAIR      77  55  46 NW7       30.01F
NEWPORT NEWS   FAIR      80  56  43 W15       30.03F
LANGLEY AFB    MOSUNNY   79  59  50 W14       30.02F
FORT EUSTIS    FAIR      78  67  67 NW9G17    30.02S
WILLIAMSBURG*  FAIR      82  61  47 W8        30.04S
HR EXEC AP*    FAIR     N/A N/A N/A W10G18    30.05F
FRANKLIN*      FAIR      79  57  47 W10       30.05S
US460-WAKEFLD  FAIR      81  55  40 VRB7      30.04F
$$

VAZ020-022-025-037-045-241900-
WEST CENTRAL AND SOUTHWEST VIRGINIA

CITY           SKY/WX    TMP DP  RH WIND       PRES   REMARKS
STAUNTON*      FAIR      77  49  36 NW10      30.09S
WAYNESBORO*    FAIR      75  49  39 CALM      30.09F
HOT SPRINGS VA PTSUNNY   67  49  51 W9        30.18F
LYNCHBURG      FAIR      77  54  44 W7        30.10F
DANVILLE       FAIR      79  53  40 CALM      30.10F
SOUTH BOSTON*  FAIR      80  55  42 CALM      30.09S
MARTINSVILLE   FAIR      76  56  49 NW5       30.14F
ROANOKE        PTSUNNY   76  51  41 NW12      30.13F
BLACKSBURG     FAIR      73  52  47 NW7       30.19F
DUBLIN*        FAIR      74  53  46 NW3       30.18F
MARION*        FAIR      72  54  52 SW9       30.21S
HILLSVILLE*    FAIR      71  51  50 N5        30.18S
RICHLANDS*     FAIR      71  56  59 SW9       30.20F
WISE*          FAIR      73  41  31 W6        30.21F
ABINGDON*      FAIR      74  50  41 W7        30.19F
$$

MDZ021>025-VAZ099-100-241900-
SOUTHERN MARYLAND AND THE DELMARVA PENINSULA

CITY           SKY/WX    TMP DP  RH WIND       PRES   REMARKS
PATUXENT RIVER PTSUNNY   78  52  40 N13       29.99F
BAY BRIDGE APT SUNNY     77  52  41 W3        29.98F
LEONARDTOWN    SUNNY     77  50  38 W6        30.01F
DOVER          MOSUNNY   76  60  58 SW10      29.93F
GEORGETOWN     SUNNY     76  54  46 W7        29.98F
EASTON         MOSUNNY   77  59  53 NW9G18    30.03F
CAMBRIDGE      SUNNY     73  52  46 N6        29.99F
SALISBURY      SUNNY     76  55  48 NW8       29.99S
OCEAN CITY     SUNNY     75  55  49 NW8       29.99S
WALLOPS ISLAND PTSUNNY   77  51  40 W15       30.00S
ACCOMACK*      FAIR      73  48  40 NW13      30.01F
$$

NCZ012>017-030>032-241900-
NORTH CENTRAL AND EASTERN NORTH CAROLINA

CITY           SKY/WX    TMP DP  RH WIND       PRES   REMARKS
ROANOKE RAPIDS FAIR      81  55  41 NW7       30.07F
RALEIGH        MOSUNNY   80  53  39 W6G17     30.10F
ELIZABETH CITY SUNNY     79  57  46 SW12G20   30.04F
AHOSKIE*       SUNNY     78  56  46 CALM      30.06F
EDENTON*       SUNNY     80  61  51 W8        30.06F
CURRITUCK*     SUNNY     79  55  42 W9        30.05S
KILL DEVIL HLS SUNNY     78  55  44 W13G20    30.04F
MANTEO         SUNNY     76  58  53 NW7G16    30.06F
CAPE HATTERAS  SUNNY     74  58  57 SW12      30.10S
TARBORO*       FAIR      81  56  42 W10       30.08F
GOLDSBORO      SUNNY     81  54  39 W13G20    30.08F
WASHINGTON     SUNNY     79  56  45 NW6       30.08F
GREENVILLE     SUNNY     81  55  41 W8        30.10S
NEW BERN       SUNNY     79  56  45 W12       30.10F
WILMINGTON     SUNNY     79  52  38 NW5       30.12F
$$

VAZ048-241900-
ELSEWHERE

CITY           SKY/WX    TMP DP  RH WIND       PRES   REMARKS
HARRISBURG PA  MOSUNNY   79  45  29 NW14      29.94F
BALTIMORE      PTSUNNY   80  49  33 W12       29.97F
ANNAPOLIS      SUNNY     78  48  34 NW9       29.97F
ANDREWS AFB    FAIR      79  50  36 W15       29.99F
PHILADELPHIA   PTSUNNY   77  50  38 W16       29.94F
HENDERSON NC   SUNNY     76  54  46 SW5       30.09F
GREENSBORO     MOSUNNY   79  49  34 VRB5      30.12F
ROCKY MOUNT    SUNNY     80  54  40 VRB3      30.08F
$$

VAZ100-241900-
MARINE

STATION/POSITION TIME  TEMP    WIND        PRES    WAVE   SWELL
                       AIR SEA DIR/SP/G            HT/PER HT/PER
                 (UTC) (F)     (DEG/KT/KT) (MB)    (FT/S) (FT/S)
BRANDYWINE LGT   1700   64     330/  4/  4 1015.2F
CAPE MAY NJ      1700   65 63  290/  5/  7 1014.9F
LEWES DE         1700   63 60  360/  7/  8 1015.2F
15NM E FENWICK I 1750   60 58              1015.4R   3/ 8
OCEAN-CITY-INLET 1700   68 58  310/  7/ 10 1014.8R
WACHAPREAGUE VA  1700   76 66  280/  4/  8 1015.8S
THOMAS POINT MD  1800   71 62  160/  5/  6 1016.4F
GOOSES REEF MD   1800   70 64  100/  4/  6 1016.6F   0
COVE POINT MD    1700   69      30/  6/  8 1016.6S
SOLOMONS ISLAND  1700   74 62  340/  8/ 13   N/A
BISHOPS HEAD MD  1700   69 67  280/ 11/ 14 1016.1S
PINEY POINT MD   1700          310/ 11/ 12   N/A
POTOMAC MD       1800   68 64  290/  8/  8 1015.1F   1
CAMBRIDGE MD     1700   71 63  300/  8/ 10 1015.2R
LEWISETTA VA     1700   73 64  330/  9/ 12 1016.1F
RAPPAHANNOCK LGT 1700          300/  8/  8 1017.2R
STINGRAY PT      1800   69 65  290/  4/  4 1016.7F   1
YORK RVR RNG VA  1700   73     280/ 11/ 14 1016.1F
YORKTOWN VA      1700   74 64  310/  6/ 10 1016.6F
JAMESTOWN VA     1800   73 68  280/  8/ 10   N/A     0
DOMINION TERM VA 1700   72     330/  8/ 10 1017.2S
KIPTOPEKE VA     1700      64  240/  6/  7   N/A
CHES BAY BRIDGE  1712   70 64  240/ 10/ 11 1016.9
CAPE HENRY VA    1700   73     280/ 12/ 16   N/A
CHESAPEAKE LGHT  1700   68     280/ 16/ 16 1017.9R
WILLOUBY STN VA  1700   72     290/ 10/ 12 1018.1R
CAPE HENRY BUOY  1712      61                N/A     3/ 9
1ST LANDING BUOY 1800   69 65  240/  6/  8 1016.8F   1/ 3
CAPE CHARLES BUO 1726      61                N/A     3/10   2/10
OFFSHORE WE BUOY 1721      60                N/A     3/10   3/10
64NM E OF VA BCH 1750   60 57  240/ 10/ 12 1017.1F   3/10   3/10
DUCK PIER NC     1700   71 61  240/ 11/ 14 1017.1F
44100 DUCK FRF   1724      59                N/A     3/10   2/11
44056 DUCK FRF   1711      63                N/A     3/11   2/11
OREGON INLET NC  1700   71 64  230/  6/  7 1018.1S
HATTERAS NC      1700   72 66  230/ 10/ 14 1018.6F
DIAMOND SHLS NC  1750   70 78  250/ 14/ 17 1019.2F   4/11   3/11
CC1F1C2F2C3F3C4F4C5F5C6F6C7F7C8M1C9!


USA.gov is the U.S. government's official web portal to all federal, state and local government web resources and services.